Location: Chippewa Lake
(41.0698°N, 81.9010°W)
Time: 05:45:11
(UTC+00:00)

SL-8 Rocket - Pass Details

Date: 01 October 2021
Orbit: 958 x 990 km, 82.9° (Epoch: 17 October)

Event Time Altitude Azimuth Distance (km) Brightness Sun altitude
Rises 09:55:02 0° 13° (NNE) 3,705 7.4 -17.6°
Reaches altitude 10° 10:00:37 10° 53° (NE) 2,741 7.3 -16.6°
Maximum altitude 10:01:35 10° 62° (ENE) 2,713 7.5 -16.4°
Drops below altitude 10° 10:02:34 10° 71° (ENE) 2,736 7.7 -16.2°
Sets 10:08:04 0° 111° (ESE) 3,666 8.1 -15.2°
